This is the latest recevied weather packets stored in our database for station/object K0QED. If no packets are shown the sender has not sent any weather packets the latest 10 day(s).
| Time | Temp. | Humidity | Pressure | Rain* | Wind** | Luminosity | Snow |
|---|---|---|---|---|---|---|---|
| 1788274371 | 14.44° C | 85% | 1027 hPa | 0 mm | - | 46 W/m² | - |
| 1788274067 | 14.44° C | 86% | 1027 hPa | 0 mm | - | 52 W/m² | - |
| 1788273763 | 14.44° C | 85% | 1027 hPa | 0 mm | - | 49 W/m² | - |
| 1788273458 | 14.44° C | 86% | 1026.9 hPa | 0 mm | - | 41 W/m² | - |
| 1788273154 | 13.89° C | 86% | 1026.6 hPa | 0 mm | - | 34 W/m² | - |
| 1788272850 | 13.89° C | 85% | 1026.9 hPa | 0 mm | - | 29 W/m² | - |
| 1788272549 | 13.89° C | 85% | 1026.9 hPa | 0 mm | - | 23 W/m² | - |
| 1788272245 | 13.89° C | 85% | 1026.9 hPa | 0 mm | - | 18 W/m² | - |
| 1788271945 | 13.89° C | 84% | 1027.1 hPa | 0 mm | - | 19 W/m² | - |
| 1788271644 | 14.44° C | 84% | 1027 hPa | 0 mm | - | 20 W/m² | - |
| 1788271342 | 14.44° C | 84% | 1026.9 hPa | 0 mm | - | 20 W/m² | - |
| 1788271038 | 14.44° C | 82% | 1026.9 hPa | 0 mm | - | 18 W/m² | - |
| 1788270732 | 14.44° C | 82% | 1027 hPa | 0 mm | - | 16 W/m² | - |
| 1788270428 | 14.44° C | 82% | 1026.9 hPa | 0 mm | - | 14 W/m² | - |
| 1788270123 | 14.44° C | 83% | 1026.9 hPa | 0 mm | - | 12 W/m² | - |
| 1788269825 | 14.44° C | 83% | 1026.6 hPa | 0 mm | - | 12 W/m² | - |
| 1788269521 | 13.89° C | 83% | 1026.2 hPa | 0 mm | - | 12 W/m² | - |
| 1788269221 | 13.89° C | 85% | 1026.2 hPa | 0 mm | - | 10 W/m² | - |
| 1788268915 | 13.89° C | 85% | 1026.2 hPa | 0 mm | - | 10 W/m² | - |
| 1788268616 | 13.89° C | 85% | 1026.1 hPa | 0 mm | - | 8 W/m² | - |
| 1788268315 | 13.89° C | 85% | 1026 hPa | 0 mm | - | 5 W/m² | - |
| 1788268010 | 13.89° C | 85% | 1026 hPa | 0 mm | - | 5 W/m² | - |
| 1788267709 | 13.89° C | 85% | 1026.1 hPa | 0 mm | - | 3 W/m² | - |
| 1788267407 | 13.89° C | 84% | 1025.9 hPa | 0 mm | - | 3 W/m² | - |
| 1788267102 | 13.89° C | 85% | 1025.9 hPa | 0 mm | - | 0 W/m² | - |
* Rain latest hour (hover to see other rain measurements)
** Current wind speed in m/s (hover to see current wind gust speed)